CX1RR Weather Reports


Display with metric or nautical units.
time (UTC)temp
F
wind
direction
speed
MPH
gust
MPH
rain 1hr
in
rain 24hr
in
rain mn
in
humidity
%
barometer
mb
20260507191530 61 349 0.0 5.0 0.00 1.37 1.37 1 997.6
20260507190022 62 14 2.0 9.0 0.00 1.37 1.37 1 997.7
20260507184518 62 358 0.0 5.0 0.00 1.37 1.37 1 998.6
20260507183020 62 287 0.0 4.0 0.00 1.37 1.37 1 997.9
20260507181508 62 286 0.0 6.0 0.00 1.37 1.37 1 997.8
20260507180004 62 28 4.0 11.0 0.01 1.37 1.37 1 998.5
20260507174600 62 313 2.0 8.0 0.02 1.37 1.37 1 998.4
20260507173057 62 293 0.0 7.0 0.02 1.37 1.37 1 998.6
20260507171552 62 331 1.0 6.0 0.02 1.37 1.37 1 998.9
20260507170050 62 290 2.0 7.0 0.02 1.36 1.36 1 998.8
20260507164556 62 57 0.0 5.0 0.03 1.36 1.35 1 998.1
20260507163039 62 322 2.0 9.0 0.06 1.36 1.35 1 999.6
20260507161539 62 318 2.0 6.0 0.06 1.35 1.35 1 999.8
20260507160034 62 12 0.0 6.0 0.08 1.35 1.34 1 999.8
20260507154525 62 28 1.0 6.0 0.09 1.33 1.32 1 1000.3
20260507153021 62 293 3.0 8.0 0.10 1.31 1.30 1 1000.3
20260507151517 62 289 3.0 7.0 0.11 1.30 1.29 1 1000.2
20260507150014 62 321 2.0 8.0 0.10 1.27 1.26 1 1000.7
20260507144510 62 327 4.0 11.0 0.09 1.24 1.23 1 1001.1
20260507143003 62 296 5.0 10.0 0.07 1.20 1.20 1 1001.0
20260507141623 62 280 4.0 13.0 0.06 1.19 1.18 1 1001.2
20260507140054 62 284 9.0 19.0 0.03 1.17 1.15 1 1001.4
20260507134550 62 288 4.0 13.0 0.01 1.13 1.12 1 1000.0
20260507133046 62 336 7.0 23.0 0.00 1.12 1.12 1 1000.1
20260507131551 62 253 1.0 5.0 0.00 1.12 1.12 1 1000.1
20260507130041 62 55 2.0 6.0 0.02 1.12 1.12 1 998.9
20260507124536 61 60 4.0 10.0 0.04 1.12 1.12 1 998.3
20260507123029 61 78 5.0 13.0 0.05 1.12 1.12 1 998.1
20260507121523 61 60 6.0 18.0 0.06 1.12 1.12 1 996.4
20260507120019 61 76 5.0 12.0 0.06 1.12 1.11 1 997.0
20260507114521 61 82 6.0 16.0 0.09 1.09 1.09 1 998.5
20260507113010 61 61 8.0 14.0 0.13 1.09 1.08 1 997.6
20260507111507 61 102 7.0 12.0 0.17 1.07 1.06 1 998.0
20260507110001 61 78 5.0 9.0 0.17 1.05 1.04 1 998.3
20260507104601 61 60 6.0 11.0 0.17 1.01 1.00 1 999.1
20260507103052 61 81 1.0 3.0 0.13 0.95 0.94 1 1000.3
20260507101548 61 15 1.0 4.0 0.11 0.91 0.90 1 999.9
20260507100054 62 77 2.0 6.0 0.11 0.87 0.87 1 998.0
20260507094539 62 261 0.0 4.0 0.13 0.84 0.83 1 999.0
20260507093035 62 188 0.0 10.0 0.13 0.82 0.81 1 1000.5
20260507091535 63 258 7.0 13.0 0.11 0.79 0.78 1 1001.4
20260507090026 64 263 6.0 16.0 0.09 0.76 0.76 1 1001.6
20260507084521 64 266 7.0 18.0 0.05 0.72 0.71 1 1002.2
20260507083017 65 296 7.0 16.0 0.03 0.69 0.68 1 1001.9
20260507081512 65 328 7.0 14.0 0.06 0.68 0.67 1 1001.4
20260507080008 65 305 6.0 12.0 0.18 0.68 0.67 1 1000.1
20260507074504 65 266 4.0 12.0 0.47 0.67 0.66 1 1000.3
20260507073100 65 286 1.0 10.0 0.56 0.65 0.65 1 1002.1
20260507071555 65 284 6.0 18.0 0.54 0.62 0.61 1 1000.9
20260507070101 66 259 11.0 21.0 0.41 0.50 0.49 1 1001.7
20260507064618 67 296 7.0 20.0 0.17 0.20 0.19 1 1001.2
20260507063042 68 315 11.0 25.0 0.07 0.09 0.08 1 1000.2
20260507061538 76 257 16.0 25.0 0.07 0.09 0.08 25 1000.9
20260507060041 77 5 9.0 23.0 0.07 0.09 0.08 17 998.8
20260507054532 80 294 10.0 24.0 0.02 0.03 0.02 52 998.9
20260507053031 81 327 7.0 23.0 0.01 0.02 0.01 56 999.0
20260507051527 81 42 6.0 21.0 0.01 0.02 0.01 57 999.3
20260507050038 81 346 7.0 23.0 0.01 0.02 0.01 56 999.4
20260507044524 81 46 7.0 21.0 0.01 0.02 0.01 57 1000.1
20260507043023 82 37 9.0 24.0 0.00 0.01 0.00 58 1000.1
20260507041526 82 299 9.0 25.0 0.00 0.01 0.00 58 1000.5
20260507040019 81 330 6.0 18.0 0.00 0.01 0.00 57 1000.6
20260507034517 81 49 11.0 23.0 0.00 0.01 0.00 54 1000.7
20260507033013 78 45 6.0 12.0 0.00 0.01 0.00 38 1000.9
20260507031511 78 88 3.0 13.0 0.00 0.01 0.00 40 1001.0
20260507030017 78 333 5.0 16.0 0.00 0.01 0.00 34 1001.0
20260507024512 77 39 6.0 14.0 0.00 0.01 0.01 23 1000.9
20260507023100 77 49 10.0 20.0 0.00 0.01 0.01 15 1000.7
20260507021554 77 45 9.0 26.0 0.00 0.01 0.01 4 1000.7
20260507014554 77 3 8.0 24.0 0.00 0.01 0.01 1 1001.4
20260507013044 76 42 7.0 26.0 0.00 0.01 0.01 1 1001.1
20260507011541 75 44 5.0 18.0 0.00 0.01 0.01 1 1001.6
20260507010051 75 44 9.0 24.0 0.00 0.01 0.01 1 1002.0
20260507004534 76 51 10.0 23.0 0.00 0.01 0.01 1 1002.5
20260507003026 76 57 7.0 13.0 0.00 0.01 0.01 1 1003.4
20260507001522 76 338 8.0 16.0 0.00 0.01 0.01 1 1003.9
20260507000017 76 47 3.0 11.0 0.00 0.01 0.01 1 1004.6
20260506234513 76 54 4.0 13.0 0.00 0.01 0.01 1 1005.2
20260506233012 76 44 5.0 13.0 0.00 0.01 0.01 1 1005.7
20260506231503 76 349 5.0 14.0 0.00 0.01 0.01 1 1006.1
20260506230119 76 44 6.0 12.0 0.00 0.01 0.01 1 1006.3
20260506224554 76 298 5.0 10.0 0.00 0.01 0.01 1 1006.5
20260506223050 75 38 4.0 11.0 0.00 0.01 0.01 1 1006.6
20260506221600 75 41 3.0 9.0 0.00 0.01 0.01 1 1006.7
20260506220050 74 63 2.0 9.0 0.00 0.01 0.01 1 1006.7
20260506214539 74 45 1.0 6.0 0.00 0.01 0.01 1 1006.7
20260506213035 74 82 1.0 7.0 0.00 0.01 0.01 1 1006.6
20260506211530 75 85 3.0 6.0 0.00 0.01 0.01 1 1006.5
20260506210025 75 56 2.0 6.0 0.00 0.01 0.01 1 1006.6
20260506204518 76 43 3.0 6.0 0.00 0.01 0.01 3 1006.7
20260506203015 77 84 3.0 10.0 0.00 0.01 0.01 11 1006.8
20260506201525 77 55 4.0 11.0 0.00 0.01 0.01 18 1007.0
20260506200005 77 64 3.0 8.0 0.00 0.01 0.01 23 1007.2
20260506194501 77 313 5.0 9.0 0.00 0.01 0.01 27 1007.5
20260506193057 77 49 4.0 9.0 0.00 0.01 0.01 20 1007.5